Regional Weather Roundup
Issued by NWS Cleveland, OH

Home | Current Version | Previous Version | Graphics & Text | Print | Product List | Glossary On
Versions: 1 2 3 4 5 6 7 8 9 10 11 12 13 14 15 16 17 18 19 20 21 22 23 24 25 26 27 28 29 30 31 32 33 34 35 36 37 38 39 40 41 42 43 44 45 46 47 48 49 50
000
ASUS41 KCLE 310710
RWRCLE
OHIO REGIONAL WEATHER ROUNDUP
NATIONAL WEATHER SERVICE CLEVELAND, OH
300 AM EDT SUN AUG 31 2014

NOTE: "FAIR" INDICATES FEW OR NO CLOUDS BELOW 12,000 FEET WITH NO
SIGNIFICANT WEATHER AND/OR OBSTRUCTIONS TO VISIBILITY.

OHZ001>008-015>018-024>027-034-035-043-044-310800-
   NORTHWEST OHIO

CITY           SKY/WX    TMP DP  RH WIND       PRES   REMARKS
DEFIANCE       CLOUDY    74  68  81 SW8       29.97S
FINDLAY        CLOUDY    74  67  78 SW10      29.98F
TOLEDO EXPRESS CLOUDY    74  68  81 SW9       29.96S
TOLEDO EXEC    CLOUDY    75  68  78 SW10      29.97S
LIMA           CLOUDY    74  67  78 SW8       30.00S
$$

OHZ009>014-019>023-028>033-038-089-310800-
   NORTHEAST OHIO

CITY           SKY/WX    TMP DP  RH WIND       PRES   REMARKS
CLE-HOPKINS    CLOUDY    76  65  68 S10       30.01F
CLE-LAKEFRONT  CLOUDY    78  65  63 S13       29.97S
CUY CO. ARPT   NOT AVBL
LORAIN-ELYRIA  CLOUDY    78  66  66 SW10      30.00S
ASHTABULA      CLOUDY    74  67  78 SW9       30.02R
AKRON-CANTON   LGT RAIN  73  66  78 W3        30.05F
WOOSTER        LGT RAIN  71  67  87 SW7       30.05F
MANSFIELD      LGT RAIN  71  68  90 S12G21    30.04S
YOUNGSTOWN     LGT RAIN  73  67  81 SW10G22   30.05S
$$

OHZ042-051>053-060>062-070>072-077>081-310800-
  SOUTHWEST OHIO

CITY           SKY/WX    TMP DP  RH WIND       PRES   REMARKS
CINC-COVINGTON CLOUDY    72  69  90 S6        30.04F FOG
CINC-LUNKEN    CLOUDY    71  70  96 CALM      30.04F
HAMILTON       CLOUDY    71  70  96 CALM      30.04F
DAYTON         CLOUDY    73  68  84 SW10      30.04F
WRIGHT-PAT AFB CLOUDY    72  69  90 S6        30.03F
DAYTON GENERAL CLOUDY    71  69  93 S7        30.03F
WILMINGTON     CLOUDY    69  67  93 SW6       30.05F FOG
$$

OHZ036-037-039>041-045>050-054>059-063>069-073>076-082>088-310800-
  CENTRAL AND SOUTHEAST OHIO

CITY           SKY/WX    TMP DP  RH WIND       PRES   REMARKS
COLUMBUS       CLOUDY    73  69  87 S8        30.04R
OSU AIRPORT    CLOUDY    71  69  93 S6        30.04S
BOLTON FIELD   CLOUDY    70  70  99 S8        30.05S FOG
RICKENBACK AFB CLOUDY    71  66  85 S8        30.04S HAZE
NEWARK         RAIN      71  69  93 S5        30.04F FOG
MARION         CLOUDY    72  67  84 S8        30.02F
LANCASTER      CLOUDY    71  69  93 S3        30.06F FOG
ZANESVILLE     LGT RAIN  71  68  90 SW5       30.06R FOG
NEW PHILLY     LGT RAIN  73  69  87 CALM      30.04F
$$


USA.gov is the U.S. government's official web portal to all federal, state and local government web resources and services.